This is the latest recevied weather packets stored in our database for station/object EA1L-13. If no packets are shown the sender has not sent any weather packets the latest 10 day(s).
| Time | Temp. | Humidity | Pressure | Rain* | Wind** | Luminosity | Snow |
|---|---|---|---|---|---|---|---|
| 1777619704 | 15° C | 100% | 1017.1 hPa | 0 mm | - | - | - |
| 1777618809 | 14.44° C | 100% | 1017.1 hPa | 0 mm | - | - | - |
| 1777617905 | 13.89° C | 100% | 1017.1 hPa | 0 mm | - | - | - |
| 1777617005 | 13.33° C | 100% | 1017.2 hPa | 0 mm | - | - | - |
| 1777616105 | 12.78° C | 100% | 1017.1 hPa | 0 mm | - | - | - |
| 1777615206 | 12.22° C | 100% | 1017.1 hPa | 0 mm | - | - | - |
| 1777614304 | 12.78° C | 100% | 1017.2 hPa | 0 mm | - | - | - |
| 1777613407 | 12.22° C | 100% | 1017.1 hPa | 0 mm | - | - | - |
| 1777612504 | 12.78° C | 100% | 1017 hPa | 0 mm | - | - | - |
| 1777611604 | 12.78° C | 100% | 1017 hPa | 0 mm | - | - | - |
| 1777610705 | 12.78° C | 100% | 1017.1 hPa | 0 mm | - | - | - |
| 1777609805 | 12.78° C | 100% | 1017.2 hPa | 0 mm | - | - | - |
| 1777608904 | 12.78° C | 100% | 1017.2 hPa | 0 mm | - | - | - |
| 1777608004 | 12.78° C | 100% | 1017.3 hPa | 0 mm | - | - | - |
| 1777607104 | 12.78° C | 99% | 1017.1 hPa | 0 mm | - | - | - |
| 1777606204 | 12.78° C | 99% | 1017.1 hPa | 0 mm | - | - | - |
| 1777605304 | 12.78° C | 98% | 1016.9 hPa | 0 mm | - | - | - |
| 1777604404 | 12.78° C | 98% | 1017 hPa | 0 mm | - | - | - |
| 1777603504 | 12.78° C | 98% | 1017.1 hPa | 0 mm | - | - | - |
| 1777602605 | 13.33° C | 97% | 1017.1 hPa | 0 mm | - | - | - |
| 1777601704 | 13.33° C | 96% | 1017 hPa | 0 mm | - | - | - |
| 1777600805 | 13.33° C | 96% | 1017 hPa | 0 mm | - | - | - |
| 1777599905 | 13.33° C | 95% | 1017 hPa | 0 mm | - | - | - |
| 1777599005 | 13.33° C | 95% | 1017.1 hPa | 0 mm | - | - | - |
| 1777598104 | 13.33° C | 95% | 1017.1 hPa | 0 mm | - | - | - |
* Rain latest hour (hover to see other rain measurements)
** Current wind speed in m/s (hover to see current wind gust speed)